PBO Station Position Time Series. Reference Frame : NAM14
Format Version,1.1.1
4-character ID,SEDR
Station name,SEDR_PNGA_WA1997
Begin Date, 1997-10-07
End Date, 2023-06-26
Release Date, 2023-06-27
Reference position, 48.5215575201 North Latitude, -122.2238484117 East Longitude, 29.84966 meters elevation,
Date, North (mm), East (mm), Vertical (mm), North Std. Deviation (mm), East Std. Deviation (mm),              Vertical Std. Deviation (mm), Quality,
1997-10-07,0.00, 0.00, 0.00, 2.51, 1.80, 8.41, repro,
1997-10-08,5.34, -0.88, 7.65, 8.94, 4.99, 24.51, repro,
1997-10-09,0.51, -2.00, 11.16, 2.51, 1.83, 8.43, repro,
1997-10-10,-3.72, 0.33, 1.38, 2.49, 1.80, 8.36, repro,
1997-10-11,-2.60, 1.31, -0.39, 2.50, 1.80, 8.13, repro,
1997-10-12,-2.67, 1.41, -7.26, 2.52, 1.81, 8.25, repro,
1997-10-13,-1.05, -0.49, -12.36, 2.51, 1.81, 8.23, repro,
1997-10-14,-1.98, 0.62, -6.79, 2.58, 1.86, 8.43, repro,
1997-10-15,-1.07, 2.25, -11.42, 2.65, 1.90, 8.55, repro,
1997-10-16,-2.54, 1.40, -3.05, 2.60, 1.87, 8.58, repro,
1997-10-17,-2.84, 0.50, -3.60, 2.68, 1.91, 8.78, repro,
1997-10-18,-0.38, 0.38, -10.17, 2.59, 1.85, 8.33, repro,
1997-10-19,-0.91, 1.15, -6.66, 2.60, 1.88, 8.51, repro,
1997-10-20,-0.75, 1.82, -8.32, 2.70, 1.92, 8.67, repro,
1997-10-21,-1.89, 1.15, -3.80, 2.64, 1.94, 8.79, repro,
1997-10-22,-3.13, 1.11, -4.26, 2.63, 1.88, 8.68, repro,
1997-10-23,0.46, 0.46, -1.38, 2.67, 1.87, 8.44, repro,
1997-10-24,-0.16, 1.40, -6.26, 2.66, 1.87, 8.49, repro,
1997-10-25,-1.29, 2.24, -8.65, 2.69, 1.85, 8.59, repro,
1997-10-26,-2.18, 0.08, -6.94, 2.60, 1.90, 8.62, repro,
1997-10-27,-1.49, 0.20, -2.77, 2.70, 1.95, 8.85, repro,
1997-10-28,-1.04, 1.29, -5.87, 2.66, 1.91, 8.61, repro,
1997-10-29,1.97, 0.08, 1.37, 2.65, 1.93, 8.92, repro,
1997-10-30,-1.26, -0.74, -4.88, 2.68, 1.94, 8.76, repro,
1997-10-31,-0.99, -0.53, 3.70, 2.63, 1.92, 8.73, repro,
1997-11-01,-2.62, 2.48, -8.65, 2.52, 1.82, 8.33, repro,
1997-11-02,-3.41, 1.11, -2.44, 2.59, 1.89, 8.75, repro,
1997-11-03,-2.43, -0.29, 2.81, 2.66, 1.89, 8.73, repro,
1997-11-04,-0.35, 0.49, -2.30, 2.74, 1.95, 8.79, repro,
1997-11-05,-2.13, 0.70, -6.06, 2.63, 1.88, 8.48, repro,
1997-11-06,-1.70, -0.75, 0.61, 3.06, 2.10, 9.59, repro,
1997-11-07,-0.34, 0.77, -1.80, 2.84, 2.03, 9.28, repro,
1997-11-08,-0.91, 0.67, -3.77, 2.50, 1.82, 8.20, repro,
1997-11-09,0.65, 2.16, -2.57, 2.56, 1.88, 8.35, repro,
1997-11-10,-0.36, 0.20, -1.30, 2.58, 1.92, 8.85, repro,
1997-11-11,-0.08, 1.52, 4.54, 2.58, 1.92, 8.69, repro,
1997-11-12,2.31, -0.77, 4.61, 2.56, 1.87, 8.47, repro,
1997-11-13,-2.89, 1.97, 5.66, 2.51, 1.81, 8.21, repro,
1997-11-14,-3.02, 0.63, 1.59, 2.73, 1.93, 8.74, repro,
1997-11-15,0.55, 0.55, -1.59, 2.71, 1.95, 8.62, repro,
1997-11-16,-4.61, 0.29, -0.91, 2.56, 1.84, 8.35, repro,
1997-11-17,0.60, 0.85, -4.84, 2.73, 1.98, 9.01, repro,
1997-11-18,-2.60, 0.37, 10.48, 2.67, 1.93, 8.76, repro,
1997-11-19,1.50, 1.79, 0.77, 2.71, 1.93, 8.81, repro,
1997-11-20,-2.27, -0.81, 7.50, 2.72, 1.95, 8.82, repro,
1997-11-21,-0.92, 1.10, 5.80, 3.05, 2.09, 9.38, repro,
1997-11-22,-6.87, 1.50, 9.40, 2.96, 2.08, 9.41, repro,
1997-11-23,2.23, 0.35, 15.66, 2.80, 2.01, 9.12, repro,
1997-11-24,-1.64, 1.69, 7.64, 2.82, 1.97, 9.01, repro,
1997-11-25,-2.73, 1.54, 2.82, 2.50, 1.82, 8.35, repro,
1997-11-26,-1.36, 0.13, 0.72, 2.77, 1.93, 8.79, repro,
1997-11-27,-3.05, -0.31, 10.71, 2.54, 1.81, 8.31, repro,
1997-11-28,-3.16, 0.59, 8.72, 2.51, 1.84, 8.50, repro,
1997-11-29,0.03, 1.64, 3.30, 2.64, 1.88, 8.65, repro,
1997-11-30,-1.05, 0.85, 6.13, 2.48, 1.82, 8.20, repro,
1997-12-01,-1.80, 0.54, -6.92, 2.58, 1.83, 8.44, repro,
1997-12-02,-1.23, 1.44, 0.81, 2.50, 1.79, 8.25, repro,
1997-12-03,-0.88, 1.04, -1.19, 2.71, 1.93, 9.20, repro,
1997-12-04,0.06, 1.37, -6.99, 2.54, 1.82, 8.47, repro,
1997-12-05,-0.03, 1.39, -10.29, 2.75, 1.92, 8.84, repro,
1997-12-06,-1.47, 1.41, -2.28, 2.67, 1.87, 8.63, repro,
1997-12-07,-0.14, 1.18, 2.94, 2.47, 1.78, 8.13, repro,
1997-12-08,-2.99, 2.15, 8.54, 2.57, 1.87, 8.43, repro,
1997-12-09,-2.56, 1.24, 3.26, 2.48, 1.77, 8.06, repro,
1997-12-10,-1.29, 1.26, -9.07, 2.71, 1.86, 8.74, repro,
1997-12-11,-1.96, 2.60, -12.95, 2.56, 1.82, 8.42, repro,
1997-12-12,-1.85, 1.30, -11.35, 2.50, 1.80, 8.25, repro,
1997-12-13,-3.05, 0.43, -1.46, 2.49, 1.78, 8.24, repro,
1997-12-14,-2.17, -1.78, 1.68, 2.51, 1.79, 8.32, repro,
1997-12-15,-0.51, -0.34, -1.25, 2.76, 1.95, 9.04, repro,
1997-12-16,-1.88, 1.03, 4.13, 2.60, 1.83, 8.50, repro,
1997-12-17,-2.95, 1.12, 1.99, 2.64, 1.83, 8.53, repro,
1997-12-18,-2.72, 1.04, -0.63, 2.62, 1.88, 8.39, repro,
1997-12-19,-3.12, 0.68, -2.88, 2.48, 1.81, 8.01, repro,
1997-12-20,-0.58, 1.89, 2.35, 2.54, 1.84, 8.22, repro,
1997-12-21,1.43, 0.67, -1.47, 2.50, 1.83, 8.19, repro,
1997-12-22,-1.25, 1.03, -13.13, 2.44, 1.81, 8.10, repro,
1997-12-23,-2.23, 0.21, -5.53, 2.56, 1.84, 8.38, repro,
1997-12-24,-0.86, 0.44, -2.91, 2.51, 1.80, 8.10, repro,
1997-12-25,0.19, 1.69, -7.45, 2.59, 1.86, 8.32, repro,
1997-12-26,1.79, 0.89, -5.52, 2.51, 1.80, 8.06, repro,
1997-12-27,-1.32, 0.24, -6.88, 2.50, 1.84, 8.32, repro,
1997-12-28,-2.46, 1.25, -14.26, 2.59, 1.90, 8.61, repro,
1997-12-29,-0.97, 1.32, -0.45, 2.53, 1.87, 8.29, repro,
1997-12-30,1.14, -0.46, -5.15, 2.60, 2.00, 8.90, repro,
1997-12-31,2.22, 1.71, -1.57, 2.42, 1.78, 7.94, repro,
1998-01-01,-3.04, 1.35, 1.19, 2.52, 1.81, 8.13, repro,
1998-01-02,-0.26, 1.54, -2.97, 2.57, 1.88, 8.46, repro,
1998-01-03,-5.38, 3.32, -5.50, 2.50, 1.81, 8.13, repro,
1998-01-04,-0.33, 1.34, -1.79, 2.50, 1.82, 8.13, repro,
1998-01-05,-0.35, 0.24, -3.94, 2.56, 1.92, 8.60, repro,
1998-01-06,0.06, 1.41, -6.02, 2.57, 1.95, 8.62, repro,
1998-01-07,0.39, 0.86, -15.45, 2.70, 2.04, 9.11, repro,
1998-01-08,-1.69, 1.38, -10.71, 2.64, 1.97, 8.95, repro,
1998-01-09,-0.05, 0.93, -11.02, 2.57, 1.90, 8.54, repro,
1998-01-10,-0.37, 2.23, -6.31, 2.47, 1.82, 8.15, repro,
1998-01-11,-1.37, 1.41, -6.94, 2.48, 1.87, 8.43, repro,
1998-01-12,-1.80, 1.24, -16.55, 2.60, 1.91, 8.67, repro,
1998-01-13,-0.42, 1.80, 3.22, 2.57, 1.89, 8.57, repro,
1998-01-14,0.11, 1.47, -3.45, 2.47, 1.82, 8.21, repro,
1998-01-15,-2.62, 0.80, -11.47, 2.54, 1.94, 8.57, repro,
1998-01-16,-1.00, -1.23, -2.82, 2.80, 2.12, 9.61, repro,
1998-01-17,1.32, 0.87, -2.73, 2.51, 1.85, 8.18, repro,
1998-01-18,1.31, 0.92, -2.95, 2.54, 1.86, 8.39, repro,
1998-01-19,-0.97, 2.12, -7.26, 2.52, 1.83, 8.19, repro,
1998-01-20,-0.12, 0.97, -12.72, 2.48, 1.79, 8.04, repro,
1998-01-21,0.51, 2.29, -6.43, 2.48, 1.80, 7.99, repro,
1998-01-22,-0.00, 1.28, -6.29, 2.50, 1.85, 8.20, repro,
1998-01-23,0.91, 2.67, -8.91, 2.62, 1.90, 8.56, repro,
1998-01-24,-0.14, 1.77, -1.19, 2.51, 1.80, 8.14, repro,
1998-01-25,0.20, 2.51, -7.10, 2.48, 1.76, 7.97, repro,
1998-01-26,0.73, 0.57, -16.66, 2.48, 1.79, 8.02, repro,
1998-01-27,-0.50, 1.82, -8.06, 2.43, 1.78, 7.99, repro,
1998-01-28,0.53, 2.52, -7.29, 2.51, 1.78, 8.11, repro,
1998-01-29,-0.45, 2.01, 0.65, 2.60, 1.84, 8.43, repro,
1998-01-30,-0.12, 1.85, -14.57, 2.44, 1.81, 8.13, repro,
1998-01-31,-0.48, 2.09, -7.10, 2.36, 1.76, 7.77, repro,
1998-02-01,1.69, 0.75, 1.84, 2.44, 1.77, 7.96, repro,
1998-02-02,2.04, 2.31, -1.92, 2.38, 1.75, 7.80, repro,
1998-02-03,1.01, 1.45, -3.65, 2.37, 1.73, 7.74, repro,
1998-02-04,1.32, 2.77, 0.56, 2.47, 1.82, 8.01, repro,
1998-02-05,0.87, 1.76, 1.03, 2.57, 1.87, 8.32, repro,
1998-02-06,1.97, 1.65, 3.89, 2.37, 1.75, 7.77, repro,
1998-02-07,1.01, 0.65, -3.86, 2.39, 1.76, 7.79, repro,
1998-02-08,0.12, 1.62, -2.36, 2.40, 1.78, 7.94, repro,
1998-02-09,-1.20, 1.80, 1.35, 2.52, 1.82, 8.21, repro,
1998-02-10,0.52, 2.11, -3.90, 2.47, 1.81, 8.04, repro,
1998-02-11,1.18, 2.01, -9.04, 2.50, 1.81, 8.53, repro,
1998-02-12,-0.84, 0.87, 3.07, 2.47, 1.80, 8.07, repro,
1998-02-13,1.11, 1.77, -10.93, 2.40, 1.79, 7.95, repro,
1998-02-14,1.11, 2.07, -3.85, 2.45, 1.81, 8.08, repro,
1998-02-15,0.45, 1.92, -6.00, 2.51, 1.85, 8.32, repro,
1998-02-16,-1.04, 2.64, -5.28, 2.43, 1.79, 7.99, repro,
1998-02-17,-1.38, 2.13, 3.63, 2.69, 1.92, 8.65, repro,
1998-02-18,2.99, 1.69, 3.43, 2.64, 1.96, 8.53, repro,
1998-02-19,0.65, 1.00, -2.80, 2.44, 1.83, 8.09, repro,
1998-02-20,-1.08, 2.21, -8.60, 2.57, 1.91, 8.57, repro,
1998-02-21,-0.48, 0.40, 4.40, 2.46, 1.83, 8.24, repro,
1998-02-22,-5.28, 0.05, -13.09, 2.51, 1.84, 8.26, repro,
1998-02-23,-2.47, 2.67, -3.11, 2.48, 1.81, 8.17, repro,
1998-02-24,-1.20, 2.37, -0.14, 2.48, 1.81, 8.20, repro,
1998-02-25,0.12, 1.92, -2.81, 2.34, 1.77, 7.85, repro,
1998-02-26,-1.63, 1.69, -12.50, 2.41, 1.84, 8.26, repro,
1998-02-27,1.72, 1.80, -15.91, 2.45, 1.81, 8.23, repro,
1998-02-28,2.05, 2.96, -17.15, 2.47, 1.83, 8.44, repro,
1998-03-01,-2.52, 4.02, -5.99, 2.55, 1.88, 8.78, repro,
1998-03-02,0.54, 3.49, -9.32, 2.35, 1.76, 7.79, repro,
1998-03-03,-3.10, 3.44, -20.75, 2.46, 1.85, 8.26, repro,
1998-03-04,-1.73, 3.64, -12.99, 2.38, 1.74, 7.90, repro,
1998-03-05,-1.66, 3.21, -14.62, 2.44, 1.78, 8.01, repro,
1998-03-06,1.09, 4.89, -8.14, 2.34, 1.73, 7.65, repro,
1998-03-07,-0.26, 4.60, -5.88, 2.41, 1.80, 8.01, repro,
1998-03-08,-1.06, 5.58, -13.38, 2.39, 1.82, 8.08, repro,
1998-03-09,0.11, 5.10, -13.32, 2.32, 1.72, 7.67, repro,
1998-03-10,-1.14, 6.01, -17.81, 2.47, 1.85, 8.23, repro,
1998-03-11,-0.69, 4.79, -19.40, 2.48, 1.83, 8.20, repro,
1998-03-12,0.87, 5.14, -0.98, 2.50, 1.81, 8.30, repro,
1998-03-13,-0.15, 4.25, -18.68, 2.49, 1.87, 8.31, repro,
1998-03-14,-2.96, 4.39, -13.60, 2.42, 1.82, 8.11, repro,
1998-03-15,0.03, 4.78, -17.29, 2.45, 1.79, 8.08, repro,
1998-03-16,1.28, 4.51, -18.29, 2.45, 1.77, 8.03, repro,
1998-03-17,1.63, 5.79, -12.51, 2.47, 1.81, 8.24, repro,
1998-03-18,0.16, 4.78, -6.20, 2.41, 1.76, 7.93, repro,
1998-03-19,-1.65, 5.50, -9.86, 2.37, 1.76, 7.87, repro,
1998-03-20,0.64, 5.06, -8.19, 2.42, 1.79, 7.99, repro,
1998-03-21,0.34, 5.56, -12.00, 2.35, 1.75, 7.83, repro,
1998-03-22,-0.00, 4.83, -5.99, 2.39, 1.73, 7.82, repro,
1998-03-23,2.78, 4.90, -2.91, 2.43, 1.80, 8.08, repro,
1998-03-24,-0.59, 3.86, 0.57, 2.45, 1.83, 8.13, repro,
1998-03-25,0.17, 4.94, -8.76, 2.37, 1.75, 7.85, repro,
1998-03-26,1.00, 4.18, -5.04, 2.40, 1.77, 7.94, repro,
1998-03-27,-0.27, 4.95, 3.81, 2.44, 1.79, 8.01, repro,
1998-03-28,-1.49, 4.48, -2.20, 2.46, 1.78, 8.03, repro,
1998-03-29,0.62, 5.57, -5.10, 2.44, 1.77, 8.01, repro,
1998-03-30,-0.76, 3.60, -4.43, 2.48, 1.82, 8.30, repro,
1998-03-31,0.62, 4.03, -15.29, 2.43, 1.80, 8.00, repro,
1998-04-01,-0.53, 5.76, -8.27, 2.41, 1.79, 7.95, repro,
1998-04-02,-0.23, 5.29, -11.14, 2.49, 1.81, 8.05, repro,
1998-04-03,-0.44, 5.64, -7.79, 2.40, 1.81, 8.00, repro,
1998-04-04,-0.72, 6.13, -2.01, 2.39, 1.77, 7.93, repro,
1998-04-05,-2.32, 4.01, -4.34, 2.41, 1.79, 7.94, repro,
1998-04-06,1.27, 5.45, -13.81, 2.46, 1.87, 8.29, repro,
1998-04-07,0.21, 4.51, -12.70, 2.54, 1.92, 8.51, repro,
1998-04-08,-0.98, 6.17, -10.00, 2.52, 1.85, 8.28, repro,
1998-04-09,0.76, 5.89, -7.25, 2.36, 1.76, 7.79, repro,
1998-04-10,-1.15, 6.24, -14.02, 2.45, 1.86, 8.23, repro,
1998-04-11,-0.30, 3.75, -10.82, 2.43, 1.87, 8.33, repro,
1998-04-12,0.62, 5.36, -5.70, 2.49, 1.86, 8.26, repro,
1998-04-13,-0.16, 4.66, -5.95, 2.40, 1.80, 8.00, repro,
1998-04-14,-0.22, 5.07, -11.44, 2.34, 1.73, 7.78, repro,
1998-04-15,-0.15, 5.98, -15.31, 2.47, 1.78, 8.02, repro,
1998-04-16,0.87, 5.63, -6.55, 2.45, 1.82, 8.08, repro,
1998-04-17,0.30, 5.63, -8.85, 2.47, 1.84, 8.20, repro,
1998-04-18,0.47, 5.95, -8.57, 2.38, 1.77, 7.91, repro,
1998-04-19,-0.60, 4.54, -14.19, 2.35, 1.74, 7.80, repro,
1998-04-20,0.56, 5.38, -8.11, 2.37, 1.75, 7.92, repro,
1998-04-21,1.09, 5.81, -16.92, 2.41, 1.80, 7.95, repro,
1998-04-22,-1.03, 4.39, -6.19, 2.39, 1.77, 8.01, repro,
1998-04-23,0.60, 6.35, 0.34, 2.40, 1.77, 8.03, repro,
1998-04-24,0.15, 4.66, -11.86, 2.33, 1.72, 7.74, repro,
1998-04-25,0.36, 3.83, 7.36, 2.32, 1.73, 7.65, repro,
1998-04-26,0.61, 4.88, -3.00, 2.34, 1.72, 7.75, repro,
1998-04-27,0.92, 5.96, -12.52, 2.38, 1.76, 7.86, repro,
1998-04-28,-0.70, 5.77, -5.46, 2.40, 1.82, 8.17, repro,
1998-04-29,0.06, 5.87, -4.92, 2.43, 1.76, 7.85, repro,
1998-04-30,-0.14, 5.37, -0.75, 2.31, 1.72, 7.71, repro,
1998-05-01,-0.34, 5.96, -5.40, 2.39, 1.76, 7.96, repro,
1998-05-02,0.26, 5.39, 4.41, 2.41, 1.77, 7.95, repro,
1998-05-03,1.23, 4.62, 4.59, 2.43, 1.81, 8.12, repro,
1998-05-04,-1.99, 4.19, -4.40, 2.70, 1.97, 9.02, repro,
1998-05-05,-0.63, 4.14, 0.14, 2.41, 1.74, 7.89, repro,
1998-05-06,-0.23, 4.61, -1.44, 2.48, 1.83, 8.26, repro,
1998-05-07,1.19, 4.15, -1.76, 2.38, 1.76, 7.82, repro,
1998-05-08,1.35, 3.98, 7.10, 2.43, 1.78, 8.01, repro,
1998-05-09,-0.12, 3.62, 2.43, 2.36, 1.75, 7.95, repro,
1998-05-10,-1.00, 5.32, 4.00, 2.35, 1.74, 7.83, repro,
1998-05-11,-0.28, 4.30, 1.78, 2.38, 1.73, 7.77, repro,
1998-05-12,0.54, 4.96, 9.64, 2.37, 1.75, 7.91, repro,
1998-05-13,-0.01, 5.05, 6.55, 2.36, 1.73, 7.81, repro,
1998-05-14,-0.83, 4.99, 6.12, 2.38, 1.76, 7.95, repro,
1998-05-15,-0.88, 4.50, 3.51, 2.33, 1.75, 7.82, repro,
1998-05-16,0.25, 3.98, -3.30, 2.41, 1.77, 8.04, repro,
1998-05-17,-1.03, 4.70, -0.40, 2.39, 1.73, 7.83, repro,
1998-05-18,0.36, 5.35, 1.58, 2.45, 1.79, 8.24, repro,
1998-05-19,0.82, 4.70, -4.32, 2.40, 1.78, 8.08, repro,
1998-05-20,0.10, 4.97, -5.87, 2.40, 1.77, 8.05, repro,
1998-05-21,1.34, 5.70, 5.50, 2.37, 1.75, 7.94, repro,
1998-05-22,-0.74, 5.06, 3.13, 2.47, 1.79, 8.08, repro,
1998-05-23,1.56, 5.50, -2.84, 2.48, 1.83, 8.20, repro,
1998-05-24,1.57, 5.10, -8.04, 2.41, 1.76, 7.95, repro,
1998-05-25,0.39, 4.53, -1.95, 2.39, 1.76, 7.98, repro,
1998-05-26,1.66, 5.29, -3.35, 2.44, 1.81, 8.17, repro,
1998-05-27,-1.71, 4.94, 1.39, 2.47, 1.81, 8.14, repro,
1998-05-28,0.94, 4.58, -3.26, 2.46, 1.81, 8.17, repro,
1998-05-29,0.37, 5.41, -11.98, 2.48, 1.80, 8.18, repro,
1998-05-30,2.47, 5.54, -1.56, 2.40, 1.77, 7.94, repro,
1998-05-31,-0.13, 6.01, -4.44, 2.37, 1.75, 7.90, repro,
1998-06-01,0.14, 5.65, -1.03, 2.39, 1.76, 7.90, repro,
1998-06-02,0.79, 4.97, 0.39, 2.40, 1.79, 8.02, repro,
1998-06-03,0.96, 5.38, -3.17, 2.38, 1.75, 7.82, repro,
1998-06-04,-0.88, 3.76, -4.03, 2.34, 1.74, 7.82, repro,
1998-06-05,-0.66, 5.39, -1.53, 2.38, 1.79, 8.14, repro,
1998-06-06,1.47, 6.20, -10.49, 2.42, 1.76, 8.00, repro,
1998-06-07,-0.25, 6.21, -5.68, 2.41, 1.78, 8.05, repro,
1998-06-08,-0.20, 5.85, 2.15, 2.54, 1.84, 8.37, repro,
1998-06-09,0.55, 5.33, 2.09, 2.38, 1.74, 7.85, repro,
1998-06-10,0.22, 6.15, 5.28, 2.48, 1.84, 8.18, repro,
1998-06-11,-1.21, 5.46, -2.48, 2.39, 1.76, 7.89, repro,
1998-06-12,-1.42, 4.59, 0.51, 2.40, 1.74, 7.84, repro,
1998-06-13,-0.18, 5.24, -0.41, 2.38, 1.78, 7.99, repro,
1998-06-14,-0.38, 3.95, 4.25, 2.41, 1.77, 7.89, repro,
1998-06-15,0.57, 6.32, 3.59, 2.39, 1.80, 8.02, repro,
1998-06-16,-0.97, 5.03, -2.37, 2.47, 1.88, 8.52, repro,
1998-06-17,0.08, 5.03, -1.71, 2.38, 1.77, 7.85, repro,
1998-06-18,-1.00, 4.82, 2.93, 2.41, 1.76, 7.94, repro,
1998-06-19,-0.54, 4.75, 2.67, 2.37, 1.75, 7.88, repro,
1998-06-20,-0.53, 4.89, -8.88, 2.36, 1.73, 7.77, repro,
1998-06-21,-0.31, 5.45, -2.43, 2.37, 1.77, 7.90, repro,
1998-06-22,0.03, 5.96, -0.67, 2.45, 1.78, 8.06, repro,
1998-06-23,0.64, 4.10, 8.46, 2.49, 1.82, 8.38, repro,
1998-06-24,-0.67, 5.14, 12.77, 2.47, 1.79, 8.04, repro,
1998-06-25,1.02, 4.53, 6.74, 2.52, 1.85, 8.17, repro,
1998-06-26,-0.36, 4.71, 3.49, 2.38, 1.79, 7.90, repro,
1998-06-27,0.98, 5.42, 2.51, 2.44, 1.83, 8.22, repro,
1998-06-28,-0.26, 4.39, -2.66, 2.48, 1.80, 8.20, repro,
1998-06-29,-0.69, 5.95, -3.60, 2.47, 1.87, 8.26, repro,
1998-06-30,0.01, 4.53, 1.85, 2.36, 1.78, 7.87, repro,
1998-07-01,1.23, 4.23, 5.12, 2.43, 1.78, 8.10, repro,
1998-07-02,1.15, 4.08, -3.97, 2.37, 1.76, 7.89, repro,
1998-07-03,0.13, 4.75, 6.35, 2.41, 1.81, 8.19, repro,
1998-07-04,-1.92, 4.16, 6.86, 2.42, 1.80, 8.09, repro,
1998-07-05,-0.14, 3.66, 0.42, 2.41, 1.80, 8.08, repro,
1998-07-06,-0.31, 3.07, 4.73, 2.47, 1.82, 8.28, repro,
1998-07-07,0.51, 3.02, -9.52, 2.48, 1.83, 8.33, repro,
1998-07-08,0.07, 3.74, 0.41, 2.46, 1.81, 8.24, repro,
1998-07-09,-0.97, 3.74, 5.16, 2.53, 1.85, 8.53, repro,
1998-07-10,-2.05, 2.94, 6.29, 2.49, 1.84, 8.36, repro,
1998-07-11,-1.13, 1.09, 9.19, 2.44, 1.80, 8.20, repro,
1998-07-12,0.30, 1.94, -0.91, 2.42, 1.78, 8.17, repro,
1998-07-13,-0.65, 1.96, 0.31, 2.37, 1.78, 8.04, repro,
1998-07-14,-1.47, 2.45, 0.11, 2.40, 1.79, 8.24, repro,
1998-07-15,-1.62, 1.87, 2.69, 2.38, 1.78, 8.07, repro,
1998-07-16,0.19, 2.36, 1.32, 2.45, 1.80, 8.17, repro,
1998-07-17,-2.26, 1.92, -1.12, 2.43, 1.78, 8.17, repro,
1998-07-18,-0.94, 1.55, -1.41, 2.43, 1.76, 8.03, repro,
1998-07-19,-1.64, 1.85, 8.67, 2.42, 1.79, 8.11, repro,
1998-07-20,-0.98, 1.68, -0.97, 2.42, 1.75, 8.01, repro,
1998-07-21,1.82, 2.37, 5.97, 2.37, 1.74, 7.90, repro,
1998-07-22,0.06, 2.15, -7.86, 2.51, 1.83, 8.42, repro,
1998-07-23,0.64, 1.20, 0.26, 2.52, 1.82, 8.31, repro,
1998-07-24,0.91, 1.17, 0.87, 2.43, 1.80, 8.23, repro,
1998-07-25,-0.32, 3.11, -2.31, 2.37, 1.77, 8.02, repro,
1998-07-26,0.05, 1.70, -2.14, 2.39, 1.76, 7.93, repro,
1998-07-27,-0.11, 0.96, 7.21, 2.49, 1.79, 8.29, repro,
1998-07-28,-3.62, -0.83, -4.03, 2.45, 1.81, 8.27, repro,
1998-07-29,1.34, 1.64, -4.62, 2.44, 1.76, 8.03, repro,
1998-07-30,-2.62, 2.02, 0.80, 2.39, 1.80, 8.06, repro,
1998-07-31,-1.10, -0.05, 8.59, 2.47, 1.88, 8.53, repro,
1998-08-01,0.11, 2.44, 3.82, 2.39, 1.80, 8.02, repro,
1998-08-02,-2.90, 2.19, -2.12, 2.43, 1.77, 8.06, repro,
1998-08-03,-1.08, 2.87, -6.33, 2.43, 1.77, 8.04, repro,
1998-08-04,-0.38, 2.85, -3.28, 2.45, 1.83, 8.23, repro,
1998-08-05,-2.80, 1.13, -2.26, 2.38, 1.77, 8.06, repro,
1998-08-06,-2.57, 1.18, 0.14, 2.42, 1.77, 7.90, repro,
1998-08-07,-2.58, 0.93, 2.14, 2.36, 1.74, 7.77, repro,
1998-08-08,-1.13, 1.02, 5.23, 2.40, 1.76, 7.95, repro,
1998-08-09,-3.90, 1.89, 4.85, 2.36, 1.74, 7.83, repro,
1998-08-10,0.12, 0.99, 2.58, 2.42, 1.78, 8.05, repro,
1998-08-11,-3.36, 2.81, 6.80, 2.35, 1.72, 7.73, repro,
1998-08-12,-1.63, 0.77, 1.54, 2.33, 1.73, 7.73, repro,
1998-08-13,-1.59, 1.94, -13.75, 2.36, 1.72, 7.81, repro,
1998-08-14,-0.36, 1.44, 1.29, 2.38, 1.74, 7.85, repro,
1998-08-15,-1.54, 3.43, 7.72, 2.35, 1.77, 7.94, repro,
1998-08-16,-3.10, 2.66, 5.40, 2.49, 1.84, 8.23, repro,
1998-08-17,-0.87, 1.39, -1.95, 2.32, 1.71, 7.70, repro,
1998-08-18,-0.76, 2.28, -4.50, 2.36, 1.74, 7.84, repro,
1998-08-19,-1.26, 2.67, 3.08, 2.38, 1.73, 7.84, repro,
1998-08-20,-1.30, 2.20, 4.27, 2.36, 1.76, 7.83, repro,
1998-08-21,-2.61, 2.17, 2.94, 2.33, 1.76, 7.81, repro,
1998-08-22,-1.35, 1.10, -5.47, 2.39, 1.79, 7.96, repro,
1998-08-23,-2.54, 1.40, 9.16, 2.32, 1.72, 7.69, repro,
1998-08-24,-1.68, 1.16, 3.12, 2.46, 1.82, 8.04, repro,
1998-08-25,-2.21, 2.35, -0.45, 2.36, 1.75, 7.85, repro,
1998-08-26,-2.42, 1.82, 0.48, 2.37, 1.75, 7.85, repro,
1998-08-27,-2.16, 2.17, 3.40, 2.41, 1.81, 8.18, repro,
1998-08-28,-1.94, 1.54, 2.93, 2.31, 1.72, 7.68, repro,
1998-08-29,-0.00, 2.20, -1.25, 2.35, 1.73, 7.77, repro,
1998-08-30,-1.12, 1.11, 0.52, 2.34, 1.73, 7.75, repro,
1998-08-31,-1.52, 0.98, -3.09, 2.34, 1.74, 7.79, repro,
1998-09-01,-3.27, 0.90, 3.62, 2.43, 1.77, 8.04, repro,
1998-09-02,-1.79, 2.87, 4.52, 2.34, 1.73, 7.75, repro,
1998-09-03,-1.50, 0.87, 7.30, 2.36, 1.72, 7.74, repro,
1998-09-04,-0.07, 0.59, 10.56, 2.41, 1.77, 7.93, repro,
1998-09-05,-3.91, 1.98, -8.88, 2.36, 1.73, 7.80, repro,
1998-09-06,-2.05, 3.24, 7.55, 2.35, 1.74, 7.79, repro,
1998-09-07,-2.23, 1.48, 14.30, 2.37, 1.78, 7.97, repro,
1998-09-08,-3.26, 0.52, 16.04, 2.40, 1.79, 8.03, repro,
1998-09-09,-2.17, 2.46, 16.62, 2.48, 1.84, 8.24, repro,
1998-09-10,-2.24, 2.38, 14.46, 2.35, 1.75, 7.76, repro,
1998-09-11,-3.82, 1.48, 9.91, 2.43, 1.77, 8.00, repro,
1998-09-12,-2.38, 2.73, 2.62, 2.34, 1.74, 7.81, repro,
1998-09-13,-0.79, 2.05, 3.61, 2.37, 1.74, 7.75, repro,
1998-09-14,-2.08, 1.49, 9.23, 2.52, 1.84, 8.17, repro,
1998-09-15,-1.29, 1.80, 5.18, 2.45, 1.81, 7.98, repro,
1998-09-16,-2.68, 2.21, 10.11, 2.47, 1.87, 8.15, repro,
1998-09-17,-2.50, 1.59, 10.24, 2.50, 1.86, 8.14, repro,
1998-09-18,-2.36, 0.70, 8.29, 2.51, 1.83, 8.13, repro,
1998-09-19,-1.39, 2.99, 11.10, 2.40, 1.79, 7.84, repro,
1998-09-20,-1.87, 1.95, 7.31, 2.44, 1.81, 7.93, repro,
1998-09-21,-2.45, 1.57, 3.76, 2.41, 1.77, 7.80, repro,
1998-09-22,-1.36, 1.92, -5.92, 2.43, 1.79, 8.23, repro,
1998-09-23,-2.16, 2.68, -0.34, 2.60, 1.92, 8.58, repro,
1998-09-24,0.53, 2.53, 11.16, 2.43, 1.79, 8.11, repro,
1998-09-25,-1.51, 1.95, 14.18, 2.90, 2.07, 9.55, repro,
1998-09-26,-1.11, 0.56, 6.52, 2.54, 1.83, 8.02, repro,
1998-09-27,-0.12, 2.56, 1.33, 2.47, 1.80, 7.93, repro,
1998-09-28,-1.45, 2.59, 5.91, 2.52, 1.87, 8.08, repro,
1998-09-29,-0.98, 2.47, -5.47, 2.42, 1.75, 7.97, repro,
1998-09-30,-1.69, 2.69, 4.37, 2.38, 1.74, 7.82, repro,
1998-10-01,-0.16, 3.41, 0.68, 2.41, 1.75, 7.90, repro,
1998-10-02,-0.39, 2.78, 10.12, 2.41, 1.75, 7.81, repro,
1998-10-03,-0.69, 3.07, 4.40, 2.73, 2.05, 8.83, repro,
1998-10-04,-3.57, 2.75, 4.16, 2.63, 1.91, 8.34, repro,
1998-10-05,-1.76, 2.41, 17.06, 2.51, 1.85, 8.17, repro,
1998-10-06,-2.78, 2.18, 14.86, 2.42, 1.79, 7.85, repro,
1998-10-07,-1.93, 1.61, 4.28, 2.54, 1.89, 8.20, repro,
1998-10-08,-2.10, 0.44, 13.38, 2.62, 1.98, 8.45, repro,
1998-10-09,-2.56, 2.02, 4.18, 2.64, 1.95, 8.56, repro,
1998-10-10,-0.79, 2.43, 1.27, 2.50, 1.92, 8.18, repro,
1998-10-11,-2.68, 2.17, 2.98, 2.60, 1.93, 8.31, repro,
1998-10-12,-0.16, 2.94, 10.59, 2.64, 1.98, 8.50, repro,
1998-10-13,-0.27, 1.95, 4.73, 2.61, 1.96, 8.34, repro,
1998-10-14,-1.91, 3.07, -1.26, 2.56, 1.88, 8.25, repro,
1998-10-15,-2.94, 1.99, 3.23, 2.57, 1.87, 8.11, repro,
1998-10-16,-0.06, 4.47, -13.61, 2.51, 1.89, 8.23, repro,
1998-10-17,0.78, 2.41, 1.25, 2.52, 1.87, 8.20, repro,
1998-10-18,0.10, 2.51, -5.16, 2.57, 1.94, 8.53, repro,
1998-10-19,-1.24, 1.94, -20.30, 2.64, 2.00, 8.82, repro,
1998-10-20,-0.94, 2.39, -4.93, 2.46, 1.86, 8.05, repro,
1998-10-21,-0.38, 1.16, -2.61, 2.54, 1.92, 8.34, repro,
1998-10-22,-1.64, 3.76, -2.52, 2.57, 1.93, 8.38, repro,
1998-10-23,-0.58, 3.24, -6.62, 2.59, 1.90, 8.33, repro,
1998-10-24,0.59, 2.80, -4.99, 2.62, 1.97, 8.56, repro,
1998-10-25,-2.59, 0.91, 3.75, 2.40, 1.83, 7.92, repro,
1998-10-26,-2.06, 1.00, 6.24, 2.60, 1.98, 8.44, repro,
1998-10-27,0.92, 1.16, 0.93, 2.47, 1.88, 8.19, repro,
1998-10-28,-5.00, -0.22, 5.15, 2.54, 1.95, 8.41, repro,
1998-10-29,-0.99, 1.94, 2.66, 2.44, 1.86, 8.07, repro,
1998-10-30,-0.30, 2.53, -2.84, 2.43, 1.85, 8.07, repro,
1998-10-31,-0.69, 2.15, 7.26, 2.46, 1.81, 8.07, repro,
1998-11-01,-0.24, 0.59, -8.64, 2.51, 1.87, 8.15, repro,
1998-11-02,1.17, 2.40, 3.40, 2.48, 1.80, 8.20, repro,
1998-11-03,-0.33, 1.49, -11.66, 2.67, 1.96, 8.64, repro,
1998-11-04,-5.24, 3.81, 4.49, 2.51, 1.92, 8.59, repro,
1998-11-05,-2.97, 2.52, 4.42, 2.60, 2.00, 8.70, repro,
1998-11-06,-1.38, 1.75, 3.33, 2.50, 1.90, 8.42, repro,
1998-11-07,-0.36, 0.76, -4.46, 2.45, 1.80, 8.17, repro,
1998-11-08,-0.83, 3.41, -5.69, 2.56, 1.98, 8.63, repro,
1998-11-09,-0.51, 2.22, -5.70, 2.53, 1.90, 8.58, repro,
1998-11-10,-1.63, 2.35, 1.83, 2.45, 1.83, 8.16, repro,
1998-11-11,-0.29, 1.20, -6.39, 2.46, 1.85, 8.29, repro,
1998-11-12,-1.45, 2.37, 6.18, 2.52, 1.83, 8.18, repro,
1998-11-13,-0.36, 1.00, 14.25, 2.58, 1.89, 8.74, repro,
1998-11-14,1.49, 2.15, 5.83, 2.49, 1.83, 8.22, repro,
1998-11-15,-1.40, 2.93, 18.27, 2.51, 1.83, 8.32, repro,
1998-11-16,-0.42, 4.06, 3.91, 2.46, 1.80, 8.08, repro,
1998-11-17,0.19, 2.69, -8.45, 2.53, 1.82, 8.28, repro,
1998-11-18,0.80, 3.55, -1.90, 2.37, 1.73, 7.80, repro,
1998-11-19,-0.07, 4.10, -2.50, 2.43, 1.78, 8.01, repro,
1998-11-20,-1.58, 2.42, 11.71, 2.39, 1.75, 7.87, repro,
1998-11-21,-2.68, 3.34, 21.80, 2.55, 1.84, 8.26, repro,
1998-11-22,-0.64, 0.86, 1.81, 2.46, 1.77, 7.88, repro,
1998-11-23,2.71, 3.33, 7.78, 2.45, 1.78, 8.07, repro,
1998-11-24,-2.69, 2.91, 1.00, 2.36, 1.73, 7.77, repro,
1998-11-25,-0.47, 1.81, 13.66, 2.35, 1.73, 7.73, repro,
1998-11-26,-1.77, 1.96, -1.00, 2.37, 1.72, 7.76, repro,
1998-11-27,-0.68, 4.36, 3.54, 2.39, 1.75, 7.83, repro,
1998-11-28,-0.11, 1.95, -2.28, 2.45, 1.79, 8.01, repro,
1998-11-29,0.34, 1.93, 0.10, 2.46, 1.77, 8.06, repro,
1998-11-30,-1.48, 1.20, 4.89, 2.45, 1.79, 8.13, repro,
1998-12-01,-0.35, 1.64, 0.80, 2.50, 1.84, 8.23, repro,
1998-12-02,-2.87, 2.08, 6.92, 2.43, 1.78, 7.97, repro,
1998-12-03,-0.95, 2.40, -1.69, 2.38, 1.77, 7.92, repro,
1998-12-04,-1.81, 2.30, -4.73, 2.43, 1.78, 8.04, repro,